Regional Weather Roundup
Issued by NWS Sioux Falls, SD

Home | Current Version | Previous Version | Graphics & Text | Print | Product List | Glossary On
Versions: 1 2 3 4 5 6 7 8 9 10 11 12 13 14 15 16 17 18 19 20 21 22 23 24 25 26 27 28 29 30 31 32 33 34 35 36 37 38 39 40 41 42 43 44 45 46 47 48 49 50
000
ASUS43 KFSD 270910
RWRFSD

WEATHER ROUNDUP FOR SE SOUTH DAKOTA/SW MINNESOTA/NW IOWA
NATIONAL WEATHER SERVICE SIOUX FALLS SD
300 AM CST SAT DEC 27 2014

NOTE: "FAIR" INDICATES FEW OR NO CLOUDS BELOW 12,000 FEET WITH NO
SIGNIFICANT WEATHER AND OR OBSTRUCTIONS TO VISIBILITY.


SDZ038>040-050-052>070-271000-
SOUTHEAST SOUTH DAKOTA

CITY           SKY/WX    TMP DP  RH WIND       PRES   REMARKS
CHAMBERLAIN    CLOUDY    13  10  87 NW8       30.18S WCI   2
HURON          CLOUDY    13   9  84 N6        30.19R WCI   4
MADISON        LGT SNOW  18  18 100 N9        30.09S WCI   6
MITCHELL       LGT SNOW  16  13  88 NW13      30.19R FOG     WCI   2
SIOUX FALLS    LGT SNOW  20  17  88 N15       30.10R FOG     WCI   6
WINNER         CLOUDY    17  12  80 W6        30.17R WCI   9
YANKTON        CLOUDY    19  16  86 NW16G24   30.16R WCI   5
$$

MNZ071-072-080-081-089-090-097-098-271000-
SOUTHWEST MINNESOTA

CITY           SKY/WX    TMP DP  RH WIND       PRES   REMARKS
FAIRMONT       CLOUDY    25  21  86 N17       30.00S WCI  11
JACKSON        LGT SNOW  27  23  86 NW14G22   30.02S WCI  15
LUVERNE        LGT SNOW  23  19  86 N12G21    30.09R WCI  12
MARSHALL       CLOUDY    19  12  73 N22       30.08S WCI   3
MONTEVIDEO     CLOUDY    19  18  93 N15       30.12R WCI   5
PIPESTONE      CLOUDY    19  18  93 N9        30.06  WCI   9
REDWOOD FALLS  LGT SNOW  24  21  88 N15       30.07S FOG     WCI  11
TRACY          LGT SNOW  20  19  93 N16G22    30.07S WCI   6
WINDOM         LGT SNOW  23  21  93 NW16      30.03S VSB 1   WCI  10
WORTHINGTON    CLOUDY    19 -24  13 N18       30.05R WCI   4
$$

IAZ001>003-012>014-020>022-031-032-NEZ013-014-SDZ071-271000-
NORTHWEST IOWA

CITY           SKY/WX    TMP DP  RH WIND       PRES   REMARKS
CHEROKEE       LGT SNOW  24  24  98 N12       30.05R WCI  13
DENISON        CLOUDY    27  27 100 NW13      30.03R WCI  16
ESTHERVILLE    LGT SNOW  24  22  91 N17       30.01R VSB 1   WCI  11
LE MARS        LGT SNOW  25  23  93 NW13      30.10R WCI  13
ORANGE CITY    LGT SNOW  25  19  80 N13G18    30.07R WCI  13
SHELDON        MIX PCPN  23  21  93 N15       30.05R WCI  10
SIOUX CITY     CLOUDY    24  21  88 NW16      30.11R WCI  11
SPENCER        LGT SNOW  25  21  85 N17       30.03R FOG     WCI  12
STORM LAKE     MIX PCPN  25  23  93 NW15      30.03R WCI  12
$$

ABBREVIATIONS USED IN REMARKS
   TC - TEMPERATURE IN CELSIUS
  WCI - WIND CHILL INDEX
   HX - HEAT INDEX
  VSB - VISIBILITY




USA.gov is the U.S. government's official web portal to all federal, state and local government web resources and services.